Other Public Products
Issued by NWS Charleston, SC

Home | Current Version | Previous Version | Text Only | Print | Product List | Glossary On
Versions: 1 2 3 4 5 6 7 8 9 10 11 12 13 14 15 16 17 18 19 20 21 22 23 24 25 26 27 28 29 30 31 32 33 34 35 36 37 38 39 40 41 42 43 44 45 46 47 48 49 50
000
FPUS82 KCHS 230428
OPUCHS

TEST...KCHS/KSAV Gateway Observations...TEST
National Weather Service Charleston SC
1100 PM EST THU FEB 22 2018

NOTE: "fair" indicates few or no clouds below 12,000 feet with no
significant weather and/or obstructions to visibility.

SCZ050-WAZ558-NCZ071-TXZ119-213-PAZ071-DCZ001-FLZ074-172-MI076-
NYZ176-178-MAZ016-IL014-TNZ027-NJZ106-GAZ044-MD014-230500-

...Gateway Observations for Charleston International...

CITY           SKY/WX    TMP DP  RH WIND       PRES   REMARKS
Chas Airport   FAIR      66  61  84 S3        30.44S
Seattle        CLEAR     32  19  58 N7        30.39R WCI  26
Charlotte      FAIR      67  61  81 S9        30.41F
Dallas DFW     CLOUDY    41  37  86 W6        30.24F
Dallas Love    CLOUDY    40  38  93 NW3       30.26S
Philladelphia  CLOUDY    39  37  92 NE10      30.65R WCI  32
Wash National  CLOUDY    44  39  82 NE12      30.61R
Baltimore      CLOUDY    42  40  92 E7        30.62R
Miami          FAIR      75  67  76 E14       30.32F
Detroit        CLOUDY    36  30  79 E8        30.47F WCI  30
Newark         CLOUDY    39  33  79 NE9       30.66R WCI  33
Laguardia      CLOUDY    38  33  82 NE12      30.67R WCI  30
J F K          CLOUDY    37  35  92 NE9       30.68R WCI  30
Boston Logan   CLOUDY    34  30  85 N7        30.70R WCI  28
Ft. Lauderdale CLOUDY    76  70  82 E14       30.31F
Chicago O`Hare CLOUDY    39  33  79 E15G25    30.29F WCI  31
Chicago Midway CLOUDY    40  35  83 E15       30.31F WCI  32
Houston Bush   LGT RAIN  61  60  97 W6        30.21R VSB 3/4
Houston Hobby  CLOUDY    72  72 100 S7        30.19R
Nashville      FOG       58  57  97 SE3       30.32F VSB 1/2
Atlanta        FAIR      68  63  84 S8        30.39S

$$

GAZ044-118-TXZ119-213-NCZ071-DCZ001-MDZ014-506-PAZ021-071-NJZ106-
NYZ176-178-MAZ106-OHZ011-021-055-MIZ076-KYZ091-ILZ014-INZ047-
MNZ060-ONZ431-230500-

...Gateway Observations for Savannah International...

CITY           SKY/WX    TMP DP  RH WIND       PRES   REMARKS
Savannah Arpt  FAIR      62  60  93 CALM      30.44R
Atlanta        FAIR      68  63  84 S8        30.39S
Charlotte      FAIR      67  61  81 S9        30.41F
Dallas DFW     CLOUDY    41  37  86 W6        30.24F
Houston Bush   LGT RAIN  61  60  97 W6        30.21R VSB 3/4
Wash National  CLOUDY    44  39  82 NE12      30.61R
Wash Dulles    CLOUDY    42  40  92 E7        30.59S
Baltimore      CLOUDY    42  40  92 E7        30.62R
Philadelphia   CLOUDY    39  37  92 NE10      30.65R WCI  32
Newark         CLOUDY    39  33  79 NE9       30.66R WCI  33
Laguardia      CLOUDY    38  33  82 NE12      30.67R WCI  30
J F K          CLOUDY    37  35  92 NE9       30.68R WCI  30
Boston         CLOUDY    34  30  85 N7        30.70R WCI  28
Pittsburg      CLOUDY    40  39  97 E6        30.44F WCI  36
Akron          CLOUDY    42  36  79 SE8       30.41F
Cleveland      CLOUDY    38  35  89 NE8       30.45F WCI  32
Cincinnati     DRZL/FOG  45  45 100 E8        30.36F VSB 1
Columbus       CLOUDY    42  42 100 E5        30.40F
Detroit        CLOUDY    36  30  79 E8        30.47F WCI  30
Chicago O`Hare CLOUDY    39  33  79 E15G25    30.29F WCI  31
Minneapolis    LGT SNOW  27  26  96 E7        30.23F FOG     WCI  19
Indianapolis   DRIZZLE   43  43 100 SE10      30.35S FOG
Toronto Canada CLOUDY    30  21  69 E13       30.61F WCI  20

$$




USA.gov is the U.S. government's official web portal to all federal, state and local government web resources and services.